Pine River, MN

9:33 PM CDT on April 25, 2017 (GMT -0500)
Pine River Regional

Weather History for KPWC - June, 2013

Change the Weather History Date:

Thursday, June 20, 2013

  Actual Average Record
Temperature  
Mean Temperature 65 °F -  
Max Temperature 71 °F 73 °F 82 °F (2007)
Min Temperature 59 °F 52 °F 46 °F (2001)
Growing Degree Days 15 (Base 50)    
Moisture  
Dew Point 61 °F    
Average Humidity 86    
Maximum Humidity 100    
Minimum Humidity 73    
Precipitation  
Precipitation 0.00 in - - ()
Sea Level Pressure  
Sea Level Pressure 30.00 in    
Wind  
Wind Speed 6 mph (East)    
Max Wind Speed 16 mph    
Max Gust Speed 30 mph    
Visibility 9 miles    
Events Rain , Thunderstorm    
Averages and records for this station are not official NWS values.
T = Trace of Precipitation, MM = Missing Value Source: NWS Daily Summary

Daily Weather History Graph

Daily Weather History Graph

Search for Another Location

Airport or City:

Trip Planner

Search our weather history database for the weather conditions in past years. The results will help you decide how hot, cold, wet, or windy it might be!

Date:

Astronomy

Jun. 20, 2013 Rise Set
Actual Time 5:23 AM CDT 9:14 PM CDT
Civil Twilight 4:43 AM CDT 9:54 PM CDT
Nautical Twilight 3:50 AM CDT 10:48 PM CDT
Astronomical Twilight 2:30 AM CDT 12:07 AM CDT
Moon 6:11 PM CDT (6/20) 2:59 AM CDT (6/20)
Length of Visible Light 17h 10m
Length of Day
15h 51m
Waxing Gibbous, 89% of the Moon is Illuminated
Jun 20
Waxing Gibbous
Jun 23
Full
Jun 29
Last Quarter
Jul 8
New
Jul 15
First Quarter

Hourly Weather History & Observations

Time (CDT) Temp. Dew Point Humidity Pressure Visibility Wind Dir Wind Speed Gust Speed Precip Events Conditions
12:13 AM 66.2 °F 57.2 °F 73% 29.99 in 10.0 mi ESE 4.6 mph - N/A   Clear
12:33 AM 64.4 °F 57.2 °F 77% 29.99 in 10.0 mi ESE 4.6 mph - N/A   Clear
12:52 AM 64.4 °F 57.2 °F 77% 29.98 in 10.0 mi ESE 5.8 mph - N/A   Clear
1:13 AM 64.4 °F 57.2 °F 77% 29.99 in 10.0 mi SE 5.8 mph - N/A   Clear
1:33 AM 64.4 °F 57.2 °F 77% 29.98 in 10.0 mi SE 4.6 mph - N/A   Clear
1:53 AM 64.4 °F 57.2 °F 77% 29.98 in 10.0 mi ESE 3.5 mph - N/A   Clear
2:13 AM 64.4 °F 57.2 °F 77% 29.98 in 10.0 mi SE 3.5 mph - N/A   Clear
2:33 AM 64.4 °F 57.2 °F 77% 29.98 in 10.0 mi SE 3.5 mph - N/A   Clear
2:53 AM 64.4 °F 57.2 °F 77% 29.98 in 10.0 mi Calm Calm - N/A   Clear
3:13 AM 64.4 °F 57.2 °F 77% 29.98 in 10.0 mi SE 3.5 mph - N/A   Clear
3:33 AM 64.4 °F 57.2 °F 77% 29.97 in 10.0 mi SE 3.5 mph - N/A Thunderstorm Clear
3:53 AM 64.4 °F 57.2 °F 77% 29.97 in 10.0 mi SSE 4.6 mph - N/A Thunderstorm Clear
4:13 AM 64.4 °F 57.2 °F 77% 29.97 in 10.0 mi Calm Calm - N/A Thunderstorm Clear
4:33 AM 62.6 °F 57.2 °F 82% 29.97 in 10.0 mi SE 4.6 mph - N/A   Clear
4:53 AM 62.6 °F 57.2 °F 82% 29.96 in 10.0 mi SE 4.6 mph - N/A   Clear
5:12 AM 64.4 °F 57.2 °F 77% 29.97 in 10.0 mi SE 3.5 mph - N/A   Clear
5:33 AM 64.4 °F 59.0 °F 83% 29.97 in 10.0 mi SSE 3.5 mph - N/A Thunderstorm Thunderstorm
5:52 AM 66.2 °F 59.0 °F 78% 29.96 in 10.0 mi East 4.6 mph - N/A Rain , Thunderstorm Light Thunderstorms and Rain
6:13 AM 64.4 °F 57.2 °F 77% 29.97 in 4.0 mi SSE 12.7 mph 29.9 mph N/A Rain , Thunderstorm Heavy Thunderstorms and Rain
6:33 AM 62.6 °F 60.8 °F 94% 30.01 in 4.0 mi SE 12.7 mph 19.6 mph N/A Rain , Thunderstorm Heavy Thunderstorms and Rain
6:53 AM 62.6 °F 59.0 °F 88% 30.04 in 1.5 mi Calm Calm - N/A Rain , Thunderstorm Heavy Thunderstorms and Rain
7:12 AM 60.8 °F 59.0 °F 94% 30.04 in 2.5 mi SE 11.5 mph 21.9 mph N/A Rain , Thunderstorm Heavy Thunderstorms and Rain
7:33 AM 59.0 °F 57.2 °F 94% 30.04 in 3.0 mi SE 8.1 mph - N/A Rain , Thunderstorm Heavy Thunderstorms and Rain
7:53 AM 60.8 °F 59.0 °F 94% 30.04 in 2.5 mi ESE 16.1 mph 25.3 mph N/A Rain , Thunderstorm Heavy Thunderstorms and Rain
8:12 AM 60.8 °F 57.2 °F 88% 30.03 in 3.0 mi East 10.4 mph - N/A Rain , Thunderstorm Heavy Thunderstorms and Rain
8:33 AM 60.8 °F 59.0 °F 94% 30.06 in 5.0 mi Calm Calm - N/A Rain Rain
8:53 AM 60.8 °F 59.0 °F 94% 30.05 in 7.0 mi North 3.5 mph - N/A Rain Light Rain
9:13 AM 62.6 °F 60.8 °F 94% 30.04 in 7.0 mi East 6.9 mph - N/A Rain , Thunderstorm Rain
9:32 AM 62.6 °F 62.6 °F 100% 30.03 in 7.0 mi East 5.8 mph - N/A Rain Rain
9:53 AM 62.6 °F 62.6 °F 100% 30.01 in 10.0 mi ESE 8.1 mph - N/A Rain Light Rain
10:13 AM 62.6 °F 62.6 °F 100% 30.01 in 10.0 mi ESE 6.9 mph - N/A Rain Light Rain
10:32 AM 62.6 °F 62.6 °F 100% 30.01 in 10.0 mi SSE 4.6 mph - N/A Rain Light Rain
10:53 AM 62.6 °F 62.6 °F 100% 30.01 in 10.0 mi Calm Calm - N/A Rain Light Rain
11:13 AM 64.4 °F 62.6 °F 94% 29.99 in 10.0 mi NE 4.6 mph - N/A Rain Light Rain
11:33 AM 64.4 °F 62.6 °F 94% 30.01 in 10.0 mi Calm Calm - N/A   Light Drizzle
11:53 AM 64.4 °F 64.4 °F 100% 30.00 in 10.0 mi East 4.6 mph - N/A Rain Light Rain
12:12 PM 64.4 °F 64.4 °F 100% 30.00 in 10.0 mi ENE 5.8 mph - N/A   Overcast
12:33 PM 64.4 °F 64.4 °F 100% 30.00 in 10.0 mi ENE 6.9 mph - N/A   Mostly Cloudy
12:52 PM 64.4 °F 64.4 °F 100% 30.01 in 10.0 mi East 8.1 mph - N/A   Overcast
1:13 PM 64.4 °F 64.4 °F 100% 30.01 in 10.0 mi East 11.5 mph - N/A   Scattered Clouds
1:33 PM 66.2 °F 64.4 °F 94% 30.03 in 10.0 mi East 8.1 mph - N/A   Mostly Cloudy
1:53 PM 66.2 °F 62.6 °F 88% 30.02 in 10.0 mi ESE 9.2 mph - N/A   Mostly Cloudy
2:13 PM 68.0 °F 64.4 °F 88% 30.01 in 10.0 mi East 10.4 mph 17.3 mph N/A   Mostly Cloudy
2:33 PM 68.0 °F 64.4 °F 88% 30.01 in 10.0 mi East 13.8 mph - N/A   Mostly Cloudy
2:53 PM 68.0 °F 62.6 °F 83% 30.01 in 10.0 mi ESE 10.4 mph - N/A   Overcast
3:13 PM 68.0 °F 62.6 °F 83% 30.01 in 10.0 mi East 9.2 mph 16.1 mph N/A   Mostly Cloudy
3:33 PM 68.0 °F 62.6 °F 83% 30.01 in 10.0 mi East 10.4 mph - N/A   Overcast
3:52 PM 69.8 °F 62.6 °F 78% 30.01 in 10.0 mi East 9.2 mph - N/A   Mostly Cloudy
4:13 PM 71.6 °F 64.4 °F 78% 30.00 in 10.0 mi East 8.1 mph - N/A   Mostly Cloudy
4:33 PM 71.6 °F 64.4 °F 78% 30.00 in 10.0 mi East 11.5 mph - N/A   Mostly Cloudy
4:52 PM 71.6 °F 64.4 °F 78% 30.01 in 10.0 mi East 8.1 mph - N/A   Mostly Cloudy
5:13 PM 69.8 °F 64.4 °F 83% 30.01 in 10.0 mi ENE 8.1 mph - N/A   Overcast
5:33 PM 71.6 °F 64.4 °F 78% 30.01 in 10.0 mi East 9.2 mph - N/A   Scattered Clouds
5:53 PM 69.8 °F 62.6 °F 78% 30.01 in 10.0 mi East 12.7 mph 18.4 mph N/A   Scattered Clouds
6:13 PM 69.8 °F 62.6 °F 78% 30.00 in 10.0 mi East 10.4 mph - N/A   Mostly Cloudy
6:32 PM 69.8 °F 62.6 °F 78% 30.00 in 10.0 mi East 11.5 mph 19.6 mph N/A   Scattered Clouds
6:53 PM 69.8 °F 62.6 °F 78% 29.99 in 10.0 mi East 11.5 mph - N/A   Scattered Clouds
7:12 PM 69.8 °F 62.6 °F 78% 29.99 in 10.0 mi East 11.5 mph - N/A   Clear
7:33 PM 69.8 °F 62.6 °F 78% 30.00 in 10.0 mi ENE 6.9 mph - N/A   Scattered Clouds
7:53 PM 68.0 °F 62.6 °F 83% 30.00 in 10.0 mi ENE 6.9 mph - N/A   Mostly Cloudy
8:12 PM 68.0 °F 62.6 °F 83% 29.99 in 10.0 mi East 10.4 mph - N/A   Scattered Clouds
8:33 PM 66.2 °F 62.6 °F 88% 30.00 in 10.0 mi ENE 8.1 mph - N/A   Mostly Cloudy
8:52 PM 66.2 °F 62.6 °F 88% 30.00 in 10.0 mi ENE 6.9 mph - N/A   Overcast
9:13 PM 66.2 °F 62.6 °F 88% 29.99 in 10.0 mi East 10.4 mph - N/A   Mostly Cloudy
9:33 PM 66.2 °F 62.6 °F 88% 29.99 in 10.0 mi East 9.2 mph - N/A Thunderstorm Mostly Cloudy
9:52 PM 66.2 °F 60.8 °F 83% 29.99 in 10.0 mi ENE 8.1 mph - N/A   Scattered Clouds
10:13 PM 66.2 °F 62.6 °F 88% 29.99 in 10.0 mi East 8.1 mph - N/A   Mostly Cloudy
10:33 PM 66.2 °F 60.8 °F 83% 29.94 in 10.0 mi East 13.8 mph - N/A Thunderstorm Mostly Cloudy
10:53 PM 64.4 °F 60.8 °F 88% 29.96 in 10.0 mi East 12.7 mph 17.3 mph N/A Rain , Thunderstorm Light Thunderstorms and Rain
11:13 PM 64.4 °F 62.6 °F 94% 29.95 in 10.0 mi ENE 9.2 mph - N/A Rain , Thunderstorm Light Thunderstorms and Rain
11:32 PM 64.4 °F 62.6 °F 94% 29.95 in 10.0 mi ENE 8.1 mph - N/A Rain , Thunderstorm Rain
11:53 PM 64.4 °F 62.6 °F 94% 29.94 in 10.0 mi East 8.1 mph - N/A Thunderstorm Thunderstorm